Weather History for Warrensburg, MO

Change the Weather History Date:

Sunday, March 10, 2013

  Actual Average (KSZL) Record (KSZL)
Temperature  
Mean Temperature 40 °F -  
Max Temperature 51 °F 48 °F 74 °F (2014)
Min Temperature 30 °F 29 °F 8 °F (1998)
Degree Days  
Heating Degree Days 24    
Moisture  
Dew Point 40 °F    
Average Humidity 91    
Maximum Humidity 100    
Minimum Humidity 82    
Precipitation  
Precipitation 0.02 in - - ()
Sea Level Pressure  
Sea Level Pressure 29.71 in    
Wind  
Wind Speed 11 mph (SSW)    
Max Wind Speed 18 mph    
Max Gust Speed 25 mph    
Visibility 9 miles    
Events Rain    
Averages and records for this station are not official NWS values.
T = Trace of Precipitation, MM = Missing Value Source: NWS Daily Summary

Daily Weather History Graph

Daily Weather History Graph

Search for Another Location

Airport:

Trip Planner

Search our weather history database for the weather conditions in past years. The results will help you decide how hot, cold, wet, or windy it might be!

Date:

Astronomy

Mar. 10, 2013 Rise Set
Actual Time 7:33 AM CDT 7:17 PM CDT
Civil Twilight 7:07 AM CDT 7:44 PM CDT
Nautical Twilight 6:36 AM CDT 8:14 PM CDT
Astronomical Twilight 6:05 AM CDT 8:46 PM CDT
Moon 6:33 AM CDT (3/10) 6:26 PM CDT (3/10)
Length of Visible Light 12h 36m
Length of Day
11h 43m
Waning Crescent, 2% of the Moon is Illuminated
Mar 10
Waning Crescent
Mar 11
New
Mar 19
First Quarter
Mar 27
Full
Apr 2
Last Quarter

Hourly Weather History & Observations

Time (CDT) Temp. Windchill Dew Point Humidity Pressure Visibility Wind Dir Wind Speed Gust Speed Precip Events Conditions
12:15 AM 51.8 °F - 50.0 °F 94% 29.61 in 10.0 mi ESE 15.0 mph - N/A Rain Rain
12:35 AM 51.8 °F - 50.0 °F 94% 29.61 in 10.0 mi ESE 13.8 mph - N/A   Mostly Cloudy
12:55 AM 51.8 °F - 50.0 °F 94% 29.61 in 10.0 mi ESE 10.4 mph - 0.01 in   Clear
1:15 AM 51.8 °F - 50.0 °F 94% 29.62 in 10.0 mi SE 9.2 mph - N/A   Clear
1:35 AM 51.8 °F - 50.0 °F 94% 29.62 in 10.0 mi SE 6.9 mph - N/A   Clear
1:55 AM 51.8 °F - 50.0 °F 94% 29.62 in 10.0 mi SE 6.9 mph - N/A   Clear
3:15 AM 51.8 °F - 51.8 °F 100% 29.62 in 10.0 mi SSE 4.6 mph - N/A   Clear
4:15 AM 51.8 °F - 50.0 °F 94% 29.60 in 5.0 mi SE 5.8 mph - N/A   Mostly Cloudy
4:35 AM 51.8 °F - 50.0 °F 94% 29.59 in 3.0 mi SSE 4.6 mph - N/A   Scattered Clouds
4:55 AM 51.8 °F - 50.0 °F 94% 29.60 in 1.2 mi SSE 5.8 mph - N/A   Mostly Cloudy
5:15 AM 51.8 °F - 50.0 °F 94% 29.61 in 2.5 mi South 6.9 mph - N/A   Scattered Clouds
5:35 AM 51.8 °F - 50.0 °F 94% 29.64 in 10.0 mi South 8.1 mph - N/A   Mostly Cloudy
5:55 AM 51.8 °F - 51.8 °F 100% 29.65 in 10.0 mi South 10.4 mph - N/A   Overcast
6:15 AM 51.8 °F - 51.8 °F 100% 29.67 in 10.0 mi SSW 11.5 mph - N/A   Overcast
6:35 AM 51.8 °F - 46.4 °F 82% 29.66 in 10.0 mi South 11.5 mph - N/A   Light Drizzle
7:35 AM 50.0 °F - 44.6 °F 82% 29.70 in 10.0 mi South 11.5 mph - N/A   Overcast
7:55 AM 50.0 °F - 44.6 °F 82% 29.69 in 10.0 mi SSE 12.7 mph - N/A Rain Rain
8:15 AM 48.2 °F - 44.6 °F 87% 29.68 in 10.0 mi SSE 9.2 mph - N/A   Light Drizzle
8:35 AM 48.2 °F - 44.6 °F 87% 29.67 in 10.0 mi SE 11.5 mph - N/A   Drizzle
8:55 AM 48.2 °F - 44.6 °F 87% 29.66 in 10.0 mi SSE 9.2 mph - N/A Rain Rain
9:15 AM 48.2 °F - 44.6 °F 87% 29.68 in 10.0 mi SSE 9.2 mph - N/A Rain Light Rain
9:35 AM 48.2 °F - 44.6 °F 87% 29.69 in 10.0 mi SE 10.4 mph - N/A Rain Light Rain
9:55 AM 48.2 °F - 46.4 °F 93% 29.68 in 10.0 mi SE 12.7 mph 17.3 mph N/A Rain Light Rain
10:15 AM 48.2 °F - 46.4 °F 93% 29.65 in 10.0 mi ESE 12.7 mph - N/A   Overcast
10:35 AM 48.2 °F - 46.4 °F 93% 29.65 in 10.0 mi SE 13.8 mph - N/A   Overcast
10:55 AM 48.2 °F - 46.4 °F 93% 29.66 in 10.0 mi SE 11.5 mph - N/A   Mostly Cloudy
11:15 AM 48.2 °F - 46.4 °F 93% 29.67 in 10.0 mi SSE 11.5 mph - N/A   Mostly Cloudy
11:35 AM 48.2 °F - 46.4 °F 93% 29.68 in 10.0 mi SE 12.7 mph - N/A   Overcast
11:55 AM 48.2 °F - 46.4 °F 93% 29.66 in 10.0 mi SSE 11.5 mph - N/A   Overcast
12:15 PM 50.0 °F - 46.4 °F 87% 29.65 in 7.0 mi SE 8.1 mph - N/A Rain Rain
12:35 PM 48.2 °F - 46.4 °F 93% 29.64 in 10.0 mi South 6.9 mph - N/A Rain Rain
12:55 PM 48.2 °F - 46.4 °F 93% 29.65 in 5.0 mi SSE 6.9 mph - N/A   Drizzle
1:35 PM 48.2 °F - 46.4 °F 93% 29.63 in 7.0 mi SE 11.5 mph - N/A Rain Light Rain
1:55 PM 48.2 °F - 46.4 °F 93% 29.61 in 5.0 mi SE 10.4 mph - N/A   Heavy Drizzle
2:35 PM 44.6 °F 38.1 °F 42.8 °F 93% 29.63 in 10.0 mi West 13.8 mph 19.6 mph N/A   Overcast
2:55 PM 42.8 °F 35.8 °F 41.0 °F 93% 29.64 in 5.0 mi West 13.8 mph - N/A   Overcast
3:15 PM 41.0 °F 34.3 °F 39.2 °F 93% 29.65 in 7.0 mi West 11.5 mph - N/A   Overcast
3:35 PM 41.0 °F 33.5 °F 39.2 °F 93% 29.66 in 10.0 mi West 13.8 mph 17.3 mph N/A   Overcast
3:55 PM 41.0 °F 34.7 °F 39.2 °F 93% 29.67 in 10.0 mi West 10.4 mph 17.3 mph N/A   Overcast
4:15 PM 41.0 °F 34.3 °F 37.4 °F 87% 29.68 in 10.0 mi West 11.5 mph 17.3 mph N/A   Overcast
4:35 PM 39.2 °F 31.2 °F 35.6 °F 87% 29.70 in 10.0 mi West 13.8 mph 21.9 mph N/A   Overcast
4:55 PM 37.4 °F 30.8 °F 35.6 °F 93% 29.71 in 7.0 mi West 9.2 mph 18.4 mph N/A   Overcast
5:15 PM 37.4 °F 30.3 °F 35.6 °F 93% 29.72 in 10.0 mi West 10.4 mph 17.3 mph N/A   Overcast
5:35 PM 37.4 °F 27.5 °F 33.8 °F 87% 29.72 in 10.0 mi West 18.4 mph 24.2 mph N/A   Overcast
5:55 PM 37.4 °F 29.3 °F 33.8 °F 87% 29.73 in 10.0 mi WNW 12.7 mph - N/A   Overcast
6:15 PM 35.6 °F 25.5 °F 32.0 °F 87% 29.75 in 10.0 mi West 17.3 mph 24.2 mph N/A   Overcast
6:35 PM 35.6 °F 25.2 °F 32.0 °F 87% 29.76 in 10.0 mi WNW 18.4 mph 25.3 mph N/A   Overcast
6:55 PM 33.8 °F 23.2 °F 32.0 °F 93% 29.78 in 10.0 mi West 17.3 mph 23.0 mph N/A   Overcast
7:15 PM 33.8 °F 24.3 °F 32.0 °F 93% 29.79 in 10.0 mi West 13.8 mph 18.4 mph N/A   Overcast
7:35 PM 33.8 °F 24.3 °F 30.2 °F 87% 29.80 in 10.0 mi West 13.8 mph - 0.01 in   Overcast
8:15 PM 32.0 °F 23.0 °F 30.2 °F 93% 29.81 in 10.0 mi West 11.5 mph 20.7 mph N/A   Overcast
8:35 PM 32.0 °F 22.5 °F 30.2 °F 93% 29.81 in 10.0 mi WNW 12.7 mph 20.7 mph N/A   Overcast
8:55 PM 32.0 °F 22.5 °F 30.2 °F 93% 29.82 in 10.0 mi WNW 12.7 mph - N/A   Overcast
9:15 PM 32.0 °F 21.6 °F 28.4 °F 87% 29.83 in 10.0 mi West 15.0 mph 24.2 mph N/A   Overcast
9:35 PM 32.0 °F 23.0 °F 28.4 °F 87% 29.83 in 10.0 mi West 11.5 mph 20.7 mph N/A   Overcast
9:55 PM 32.0 °F 21.6 °F 28.4 °F 87% 29.84 in 10.0 mi WNW 15.0 mph 19.6 mph N/A   Overcast
10:15 PM 32.0 °F 22.5 °F 28.4 °F 87% 29.85 in 10.0 mi West 12.7 mph - N/A   Overcast
10:35 PM 32.0 °F 22.1 °F 28.4 °F 87% 29.85 in 10.0 mi West 13.8 mph 19.6 mph N/A   Overcast
10:55 PM 32.0 °F 22.5 °F 28.4 °F 87% 29.86 in 10.0 mi West 12.7 mph - N/A   Overcast
11:15 PM 32.0 °F 23.6 °F 28.4 °F 87% 29.86 in 10.0 mi West 10.4 mph - N/A   Overcast
11:35 PM 32.0 °F 20.8 °F 28.4 °F 87% 29.86 in 10.0 mi West 17.3 mph - N/A   Overcast
11:55 PM 32.0 °F 22.1 °F 28.4 °F 87% 29.86 in 10.0 mi West 13.8 mph 18.4 mph N/A   Overcast
12:15 AM 32.0 °F 24.2 °F 28.4 °F 87% 29.87 in 10.0 mi West 9.2 mph - N/A   Overcast
12:35 AM 30.2 °F 20.2 °F 28.4 °F 93% 29.87 in 10.0 mi West 12.7 mph - N/A   Overcast
12:55 AM 30.2 °F 19.3 °F 26.6 °F 86% 29.87 in 10.0 mi West 15.0 mph 19.6 mph N/A   Overcast